Location: Harbor Island
(32.3990°N, 80.4435°W)
Time: 07:25:57
(UTC-04:00)

Daily predictions for brighter satellites

Satellite Brightness Start Highest point End
(mag) Time Altitude Azimuth Time Altitude Azimuth Time Altitude Azimuth
OAO 2 Rocket 3.5 20:49:07 10° WNW 20:54:01 68° N 20:58:57 10° E
Cosmos 1238 Rocket 4.5 20:49:24 10° SSE 20:55:43 44° E 21:01:48 10° NNE
Helios 1A 4.1 20:52:10 10° SE 20:55:45 28° ENE 20:59:20 10° NNE
Meteor 1-19 Rocket 4.3 20:50:51 10° S 20:56:38 79° E 21:02:23 10° N
CENTAUR R/B 3.3 20:48:28 10° NNW 20:56:38 90° ENE 21:05:06 10° SSE
COSMOS 2455 3.9 20:51:56 10° NW 20:57:35 44° WSW 21:03:13 10° S
ISS -0.4 20:56:32 10° NW 20:57:47 12° NNW 20:59:04 10° N
ASTRO E2 3.8 20:54:20 10° W 20:57:56 33° SSW 21:01:33 10° SE
Resurs 01 Rocket 1.7 20:54:43 10° SSE 20:59:09 87° WSW 21:03:35 10° NNW
Cosmos 2082 Rocket 3.5 20:55:14 10° SE 20:59:09 19° E 21:03:05 10° NE
Nadezhda 1 Rocket 4.2 20:57:20 10° SSE 21:03:29 53° E 21:09:40 10° NNE
Aureole 1 Rocket 3.0 21:00:35 10° SSW 21:03:53 55° WNW 21:06:50 10° N
Aureole 3 Rocket 3.6 20:57:41 10° S 21:04:04 74° E 21:08:36 10° N
Cosmos 374 Rocket 4.3 21:00:38 10° NNW 21:04:25 85° ENE 21:08:44 10° SSE
COSMOS 2487 4.0 21:04:23 10° SE 21:06:54 18° E 21:09:25 10° NE
Cosmos 405 4.0 21:06:36 10° NNE 21:09:43 29° ENE 21:12:11 14° SE
Helios 1B rocket 2.5 21:06:50 10° NNE 21:10:54 56° E 21:14:57 10° S
Cosmos 1743 2.8 21:08:28 10° N 21:12:23 85° W 21:16:17 10° S
ASTEX 1 4.1 21:13:40 12° SE 21:17:40 34° ENE 21:22:03 10° NNE
PSLV R/B 3.7 21:17:33 10° NW 21:20:35 47° NNE 21:22:45 17° E
Cosmos 1656 Rocket 4.4 21:17:53 10° NNW 21:23:10 50° WSW 21:28:30 10° S
Meteor 2-13 Rocket 4.4 21:18:23 10° N 21:24:28 84° E 21:30:34 10° S
Okean 2 3.6 21:21:29 10° SSE 21:25:24 47° E 21:29:20 10° NNE
Cosmos 1666 2.6 21:23:23 10° N 21:27:08 85° W 21:30:51 10° S
Cosmos 1833 Rocket 3.3 21:24:48 10° SSE 21:29:48 35° ESE 21:34:51 10° NE
Cosmos 2154 Rocket 4.4 21:24:21 10° N 21:30:28 47° E 21:35:14 16° SSE
Cosmos 1892 Rocket 4.3 21:28:35 17° SE 21:31:19 33° E 21:35:17 10° NNE
Meteor 1-29 2.8 21:28:04 10° NNE 21:31:27 85° ESE 21:34:48 10° S
Meteor 2-9 Rocket 4.2 21:28:03 10° N 21:33:38 77° E 21:38:59 12° SSE
DNEPR-1 R/B 4.2 21:33:27 10° NW 21:37:45 55° WSW 21:41:44 15° S
Tiangong 2 4.0 21:36:53 10° NNW 21:38:24 13° N 21:39:54 10° NNE
Cosmos 1025 Rocket 3.2 21:37:49 10° S 21:42:03 74° W 21:46:19 10° N
Okean 1-7 Rocket 4.0 21:37:55 10° SSW 21:42:19 65° W 21:46:49 10° N
Cosmos 1606 Rocket 3.9 21:42:00 10° N 21:46:09 45° E 21:47:52 29° SE
Cosmos 1726 Rocket 3.9 21:50:31 10° N 21:54:40 46° E 21:55:57 35° SE
Cosmos 1515 3.5 21:53:23 27° S 21:55:21 74° E 21:59:09 10° N
Cosmos 1624 Rocket 4.0 21:52:28 10° NNW 21:57:47 80° ENE 22:00:37 28° SSE
Cosmos 1437 Rocket 2.6 21:56:02 10° N 21:59:55 84° E 22:01:23 37° SSE
Cosmos 1939 Rocket 3.7 22:00:28 18° SSW 22:03:03 44° W 22:06:46 10° NNW
ARGOS 3.8 22:02:01 29° ESE 22:03:49 38° ENE 22:08:47 10° N
CZ-4B DEB 4.0 22:04:41 24° SW 22:05:50 34° W 22:08:35 10° NNW
Timation 2 Rocket 4.2 22:02:33 19° S 22:07:03 49° ESE 22:13:00 10° NE
H-2A R/B 3.3 22:06:48 22° E 22:07:38 23° ENE 22:11:34 10° NNE
OAO 3 Copernicus 4.5 22:02:54 10° SW 22:07:44 47° SSE 22:08:59 39° ESE
Cosmos 2341 Rocket 4.0 22:01:41 10° N 22:08:03 71° E 22:11:29 29° SSE
Hubble Space Telescope 1.2 22:04:19 10° WSW 22:08:03 41° S 22:08:03 41° S
Cosmos 1980 Rocket 4.0 22:05:33 10° NNE 22:09:04 17° ENE 22:10:36 15° ENE
Envisat 4.3 22:06:32 10° SSW 22:11:10 36° W 22:15:50 10° NNW
GPS 2-04 Rocket1 4.0 22:08:53 10° SW 22:10:20 22° SW 22:10:20 22° SW
SL-24 DEB 4.5 22:11:30 43° ESE 22:12:24 49° E 22:16:52 10° N
SPOT 5 3.0 22:16:39 42° E 22:17:04 43° ENE 22:21:11 10° N
MetOp-B 4.1 22:15:12 40° SE 22:17:05 66° ENE 22:22:24 10° N
Cosmos 2058 Rocket 3.1 22:12:53 10° N 22:17:17 63° E 22:18:01 54° SE
Cosmos 2056 Rocket 3.6 22:12:29 10° NNW 22:17:35 70° WSW 22:19:45 34° S
NOAA 11 4.1 22:21:15 40° SSE 22:23:19 85° ENE 22:28:46 10° NNW
CZ-3A R/B 4.0 22:23:29 10° W 22:25:50 14° WNW 22:27:18 10° NNW
YAOGAN 11 4.0 22:25:48 62° ESE 22:26:10 65° ENE 22:30:28 10° N
Cosmos 1269 Rocket 4.2 22:26:05 48° ESE 22:26:24 49° ESE 22:31:30 10° NNE
H-2A R/B 4.2 22:28:29 16° ENE 22:28:29 16° ENE 22:30:50 10° NNE
Lacrosse 5 4.2 22:32:56 10° ENE 22:32:56 10° ENE 22:33:02 10° ENE
Cosmos 2181 Rocket 4.2 22:25:10 16° SSW 22:30:22 70° W 22:36:39 10° N
Cosmos 1295 Rocket 4.4 22:24:09 10° N 22:30:24 89° E 22:32:59 38° S
Cosmos 1048 Rocket 3.9 22:30:46 55° ESE 22:31:05 57° ESE 22:36:08 10° NNE
Cosmos 839 Rocket 4.5 22:24:24 10° NNW 22:31:21 90° WSW 22:35:05 37° SSE
YAOGAN 6 4.2 22:31:01 23° SW 22:31:57 27° W 22:34:58 10° NW
Meteor 1-4 Rocket 3.8 22:30:46 10° N 22:33:02 32° NNE 22:33:02 32° NNE
Cosmos 1626 Rocket 3.6 22:38:00 63° ENE 22:38:00 63° ENE 22:41:52 10° NNE
OAO 2 Rocket 3.3 22:33:57 10° W 22:38:49 61° SSW 22:38:53 60° SSW
Cosmos 2082 Rocket 3.2 22:37:25 10° SW 22:42:49 45° WNW 22:48:14 10° N
ERS-1 Rocket 3.8 22:41:26 31° SSW 22:43:15 44° W 22:48:04 10° NNW
DMSP B5D2-2 4.3 22:39:49 10° NNE 22:44:39 52° E 22:44:39 52° E
Cosmos 921 Rocket 4.0 22:44:37 10° NNW 22:48:45 40° W 22:49:20 38° WSW
Cosmos 2228 3.2 22:44:45 10° NNW 22:48:57 61° W 22:49:02 61° W
Cosmos 864 Rocket 4.5 22:42:51 10° N 22:49:02 63° E 22:49:55 57° ESE
Cosmos 1452 Rocket 3.3 22:44:03 10° NNW 22:49:21 89° ENE 22:49:50 74° SSE
Cosmos 2278 4.1 22:45:17 10° NNW 22:50:50 55° WSW 22:52:12 44° SSW
Cosmos 1656 3.6 22:52:42 10° NNW 22:58:08 69° WSW 22:58:44 63° SSW
SPOT 1/Viking Rocket 3.4 22:59:04 83° S 22:59:16 89° W 23:04:27 10° NNW
Cosmos 1697 Rocket 2.5 22:58:10 10° NNW 23:03:49 89° ENE 23:04:02 83° SSE
SL-8 Rocket 4.3 23:01:34 10° NNW 23:07:44 60° W 23:09:24 45° SW
Meteor 1-22 Rocket 4.0 23:06:22 10° N 23:11:43 84° W 23:11:43 84° W
USA 229 DEB 4.0 23:08:08 10° NNW 23:15:13 58° ENE 23:16:22 53° E
Cosmos 2366 rocket 4.0 23:09:08 10° N 23:15:15 73° W 23:16:01 65° SW
USA 229 4.0 23:08:14 10° NNW 23:15:19 58° ENE 23:16:28 52° E
SL-16 R/B 3.9 23:11:25 10° NNE 23:15:34 21° ENE 23:15:34 21° ENE
Tiangong 2 4.2 23:13:29 10° NNW 23:14:31 15° NNW 23:14:31 15° NNW
Landsat 7 4.3 23:23:14 57° NW 23:23:14 57° NW 23:27:06 10° NNW
Meteor 2-14 Rocket 4.5 23:26:36 10° NNW 23:32:37 68° W 23:32:43 68° W
CZ-4B R/B 4.3 23:30:51 10° NNE 23:34:27 46° NNE 23:34:27 46° NNE
Terra 2.7 23:38:44 47° NNW 23:38:44 47° NNW 23:42:09 10° NNW
ATLAS CENTAUR R/B 4.0 23:41:53 10° N 23:42:28 13° NNE 23:42:28 13° NNE
H-2A R/B 3.4 23:47:26 29° W 23:47:26 29° W 23:51:14 10° NW
Cosmos 2360 Rocket 4.3 23:48:32 10° NNE 23:51:48 16° NE 23:51:48 16° NE
Cosmos 1980 Rocket 2.9 23:47:55 10° NNW 23:52:22 49° WNW 23:52:22 49° WNW
